Regional Weather Roundup
Issued by NWS Midland/Odessa, TX

Skip options and go directly to product.
Home | Oldest Version | Previous Version | Current Version | All | Text Only | Save Text | Print | Product List | Glossary Off

Skip product version selection by date and time.   

264
ASUS44 KMAF 041110
RWRMAF
MIDLAND AREA WEATHER ROUNDUP
NATIONAL WEATHER SERVICE MIDLAND TX
600 AM CDT TUE AUG 04 2015

...IN SOUTHWEST TEXAS AND SOUTHEAST NEW MEXICO...

CITY           SKY/WX    TMP DP  RH WIND       PRES   REMARKS
ALPINE         PTCLDY    67  58  72 W7        30.15S
ANDREWS        FAIR      70  69  97 W6        30.03R
ARTESIA        CLEAR     66  66 100 S10       30.02F
BIG SPRING     MOCLDY    70  65  84 SW5       30.02R
CARLSBAD       CLEAR     68  66  93 SE7       30.01R
DRYDEN           N/A     78  64  61 CALM      29.95S
FORT STOCKTON  PTCLDY    72  62  71 CALM      30.01R
GUAD PASS      CLEAR     63  59  87 SW10      30.18R
HOBBS            N/A    N/A N/A N/A MISG        N/A
MARFA          MOCLDY    63  61  94 N5        30.14S
MIDLAND AIRPK  MOCLDY    73  68  86 SW3       30.01R
MIDLAND INTL   PTCLDY    71  67  87 SW5       30.00S
ODESSA           N/A     71  67  87 SW3       30.02S
PECOS          MOCLDY    73  65  78 NE3       29.98S
PRESIDIO       FAIR      76  65  69 MISG      29.98F
SEMINOLE       PTCLDY    68  66  96 SW6       30.03S
SNYDER         MOCLDY    71  65  80 SW3       29.98R
WINK           CLEAR     71  68  90 N3        29.99S
$$
...OTHER STATIONS IN TEXAS...

CITY           SKY/WX    TMP DP  RH WIND       PRES   REMARKS
ABILENE        PTCLDY    74  59  59 SE7       29.95R
AMARILLO       LGT RAIN  66  64  93 NE6       30.06F
AUSTIN         CLEAR     73  72  96 CALM      29.94S
BROWNSVILLE    PTCLDY    78  76  93 SE7       29.91R
CORPUS CHRISTI PTCLDY    78  76  93 SE3       29.91S
DALLAS FTW     MOCLDY    80  64  58 SW6       29.91R
DEL RIO        CLEAR     77  69  76 E7        29.91S
EL PASO        PTCLDY    74  60  61 S9        30.05R
HOUSTON INT    PTCLDY    76  74  93 CALM      29.95R
LUBBOCK        MOCLDY    68  63  84 E6        30.01R
SAN ANGELO     PTCLDY    75  59  57 S6        29.95S
SAN ANTONIO    MOCLDY    80  74  81 S9        29.95S
WACO           CLEAR     78  69  73 S7        29.93R
WICHITA FALLS  NOT AVBL
$$
...OTHER LOCATIONS IN NEW MEXICO...

CITY           SKY/WX    TMP DP  RH WIND       PRES   REMARKS
ALAMAGORDO     PTCLDY    73  57  56 CALM      30.08S
ALBUQUERQUE    PTCLDY    68  48  48 CALM      30.15S
CANNON AFB     CLEAR     62  61  96 NE6       30.08R
CLOVIS         CLEAR     63  59  88 NE7       30.09S
HOLLOMAN AFB   NOT AVBL
ROSWELL        PTCLDY    66  62  87 CALM      30.02R
RUIDOSO          N/A    N/A N/A N/A MISG        N/A
SANTA FE       CLEAR     56  48  74 NE8       30.21R
TRUTH OR CONSE CLEAR     69  60  73 CALM      30.12R
TUCUMCARI      CLEAR     66  63  90 E7        30.06S
$$

USA.gov is the U.S. government's official web portal to all federal, state and local government web resources and services.